Find Prospero

NORAD ID: 5580 Int'l Des: 1971-093 Owner: RAE Country: UK operational
LEOPOLAR

現在のビュー

3D地球を読み込み中...

Prosperoについて

説明を読み込み中...

次回通過

Passes for default location (London). Set your location on the main map for personalized predictions.

高度履歴

Loading altitude history...

軌道要素

1 5580U 71093A 26150.45149715 .00000816 00000-0 17383-3 0 9998
2 5580 82.0374 306.4005 0500197 278.0255 76.4464 14.01573386746043
Epoch: May 30, 2026 • Age: 14 hours

現在のステータス

高度 1116.6 km
速度 7.19 km/s
衛星直下点 45.62°N, 54.03°E
タイプ other

Most Searched